| time (UTC) | temp F | wind direction | speed MPH | gust MPH | rain 1hr in | rain 24hr in | rain mn in | humidity % | barometer mb |
| 20260903105005 | 74 | 120 | 0.0 | 2.0 | 0.00 | 0.00 | 0.00 | 78 | 1015.3 |
| 20260903104503 | 74 | 123 | 1.0 | 3.0 | 0.00 | 0.00 | 0.00 | 78 | 1015.2 |
| 20260903103504 | 74 | 295 | 2.0 | 7.0 | 0.00 | 0.00 | 0.00 | 79 | 1015.4 |
| 20260903103005 | 74 | 85 | 2.0 | 8.0 | 0.00 | 0.00 | 0.00 | 79 | 1015.4 |
| 20260903102504 | 74 | 86 | 3.0 | 8.0 | 0.00 | 0.00 | 0.00 | 79 | 1015.2 |
| 20260903102005 | 75 | 77 | 3.0 | 10.0 | 0.00 | 0.00 | 0.00 | 81 | 1015.6 |
| 20260903101004 | 75 | 354 | 1.0 | 4.0 | 0.00 | 0.00 | 0.00 | 85 | 1015.3 |
| 20260903100004 | 75 | 0 | 0.0 | 0.0 | 0.00 | 0.00 | 0.00 | 85 | 1014.4 |
| 20260903095503 | 75 | 0 | 0.0 | 0.0 | 0.00 | 0.00 | 0.00 | 85 | 1014.4 |
| 20260903094503 | 75 | 0 | 0.0 | 0.0 | 0.00 | 0.00 | 0.00 | 84 | 1014.3 |
| 20260903094004 | 75 | 0 | 0.0 | 0.0 | 0.00 | 0.00 | 0.00 | 85 | 1014.3 |
| 20260903093504 | 75 | 0 | 0.0 | 0.0 | 0.00 | 0.00 | 0.00 | 84 | 1014.2 |
| 20260903093005 | 75 | 0 | 0.0 | 0.0 | 0.00 | 0.00 | 0.00 | 84 | 1014.0 |
| 20260903092503 | 75 | 293 | 0.0 | 2.0 | 0.00 | 0.00 | 0.00 | 84 | 1013.9 |
| 20260903091504 | 75 | 298 | 1.0 | 3.0 | 0.00 | 0.00 | 0.00 | 83 | 1014.1 |
| 20260903091004 | 75 | 300 | 1.0 | 3.0 | 0.00 | 0.00 | 0.00 | 82 | 1014.1 |
| 20260903090504 | 75 | 302 | 0.0 | 2.0 | 0.00 | 0.00 | 0.00 | 80 | 1014.1 |
| 20260903090004 | 75 | 0 | 0.0 | 0.0 | 0.00 | 0.00 | 0.00 | 79 | 1014.1 |
| 20260903085503 | 75 | 0 | 0.0 | 0.0 | 0.00 | 0.00 | 0.00 | 79 | 1014.0 |
| 20260903084504 | 75 | 0 | 0.0 | 0.0 | 0.00 | 0.00 | 0.00 | 79 | 1013.9 |
| 20260903084005 | 76 | 0 | 0.0 | 0.0 | 0.00 | 0.00 | 0.00 | 79 | 1013.9 |
| 20260903083005 | 76 | 0 | 0.0 | 0.0 | 0.00 | 0.00 | 0.00 | 78 | 1013.9 |
| 20260903082503 | 76 | 0 | 0.0 | 0.0 | 0.00 | 0.00 | 0.00 | 77 | 1013.9 |
| 20260903082005 | 76 | 304 | 0.0 | 1.0 | 0.00 | 0.00 | 0.00 | 77 | 1014.0 |
| 20260903081503 | 76 | 304 | 0.0 | 1.0 | 0.00 | 0.00 | 0.00 | 77 | 1013.9 |
| 20260903081004 | 76 | 0 | 0.0 | 0.0 | 0.00 | 0.00 | 0.00 | 77 | 1014.0 |
| 20260903080504 | 77 | 0 | 0.0 | 0.0 | 0.00 | 0.00 | 0.00 | 76 | 1014.1 |
| 20260903080004 | 77 | 0 | 0.0 | 0.0 | 0.00 | 0.00 | 0.00 | 76 | 1014.1 |
| 20260903075504 | 77 | 0 | 0.0 | 0.0 | 0.00 | 0.00 | 0.00 | 75 | 1014.3 |
| 20260903075004 | 77 | 0 | 0.0 | 0.0 | 0.00 | 0.00 | 0.00 | 74 | 1014.4 |
| 20260903074504 | 78 | 0 | 0.0 | 0.0 | 0.00 | 0.00 | 0.00 | 74 | 1014.4 |
| 20260903074004 | 78 | 0 | 0.0 | 0.0 | 0.00 | 0.00 | 0.00 | 74 | 1014.4 |
| 20260903073503 | 78 | 0 | 0.0 | 0.0 | 0.00 | 0.00 | 0.00 | 74 | 1014.1 |
| 20260903073004 | 78 | 0 | 0.0 | 0.0 | 0.00 | 0.00 | 0.00 | 73 | 1014.1 |
| 20260903072503 | 78 | 0 | 0.0 | 0.0 | 0.00 | 0.00 | 0.00 | 73 | 1014.1 |
| 20260903072004 | 79 | 0 | 0.0 | 0.0 | 0.00 | 0.00 | 0.00 | 73 | 1014.0 |
| 20260903071503 | 79 | 0 | 0.0 | 0.0 | 0.00 | 0.00 | 0.00 | 74 | 1014.1 |
| 20260903071005 | 79 | 0 | 0.0 | 0.0 | 0.00 | 0.00 | 0.00 | 74 | 1014.2 |
| 20260903070503 | 79 | 304 | 0.0 | 2.0 | 0.00 | 0.00 | 0.00 | 75 | 1014.2 |
| 20260903070004 | 79 | 304 | 0.0 | 2.0 | 0.00 | 0.00 | 0.00 | 75 | 1014.3 |
| 20260903065504 | 80 | 0 | 0.0 | 0.0 | 0.00 | 0.00 | 0.00 | 76 | 1014.4 |
| 20260903065004 | 80 | 302 | 0.0 | 2.0 | 0.00 | 0.00 | 0.00 | 76 | 1014.5 |
| 20260903064504 | 80 | 302 | 0.0 | 3.0 | 0.00 | 0.00 | 0.00 | 77 | 1014.5 |
| 20260903064004 | 80 | 302 | 0.0 | 3.0 | 0.00 | 0.00 | 0.00 | 77 | 1014.7 |
| 20260903063505 | 80 | 302 | 0.0 | 3.0 | 0.00 | 0.00 | 0.00 | 77 | 1014.6 |
| 20260903063005 | 80 | 296 | 1.0 | 4.0 | 0.00 | 0.00 | 0.00 | 77 | 1014.7 |
| 20260903062504 | 80 | 302 | 2.0 | 6.0 | 0.00 | 0.00 | 0.00 | 77 | 1014.7 |
| 20260903062005 | 80 | 310 | 2.0 | 6.0 | 0.00 | 0.00 | 0.00 | 77 | 1014.7 |
| 20260903061004 | 80 | 348 | 1.0 | 5.0 | 0.00 | 0.00 | 0.00 | 76 | 1014.5 |
| 20260903060504 | 80 | 312 | 0.0 | 3.0 | 0.00 | 0.00 | 0.00 | 76 | 1014.1 |
| 20260903060005 | 81 | 262 | 0.0 | 2.0 | 0.00 | 0.00 | 0.00 | 76 | 1014.0 |
| 20260903055503 | 81 | 278 | 0.0 | 3.0 | 0.00 | 0.00 | 0.00 | 76 | 1014.0 |
| 20260903055004 | 81 | 276 | 0.0 | 3.0 | 0.00 | 0.00 | 0.00 | 76 | 1014.2 |
| 20260903054504 | 81 | 234 | 1.0 | 3.0 | 0.00 | 0.00 | 0.00 | 76 | 1014.1 |
| 20260903054005 | 81 | 234 | 1.0 | 4.0 | 0.00 | 0.00 | 0.00 | 76 | 1014.1 |
| 20260903053504 | 81 | 235 | 1.0 | 4.0 | 0.00 | 0.00 | 0.00 | 75 | 1014.0 |
| 20260903052004 | 81 | 237 | 1.0 | 3.0 | 0.00 | 0.00 | 0.00 | 75 | 1014.0 |
| 20260903051504 | 81 | 238 | 1.0 | 4.0 | 0.00 | 0.00 | 0.00 | 75 | 1013.9 |
| 20260903051004 | 81 | 240 | 1.0 | 4.0 | 0.00 | 0.00 | 0.00 | 75 | 1013.8 |
| 20260903050504 | 81 | 251 | 1.0 | 4.0 | 0.00 | 0.00 | 0.00 | 75 | 1013.7 |
| 20260903045503 | 81 | 240 | 2.0 | 6.0 | 0.00 | 0.00 | 0.00 | 75 | 1013.5 |
| 20260903045005 | 81 | 225 | 2.0 | 5.0 | 0.00 | 0.00 | 0.00 | 75 | 1013.4 |
| 20260903044503 | 81 | 211 | 1.0 | 4.0 | 0.00 | 0.00 | 0.00 | 75 | 1013.4 |
| 20260903044005 | 81 | 235 | 1.0 | 5.0 | 0.00 | 0.00 | 0.00 | 75 | 1013.5 |
| 20260903042005 | 81 | 246 | 1.0 | 4.0 | 0.00 | 0.00 | 0.00 | 74 | 1013.2 |
| 20260903041503 | 81 | 230 | 1.0 | 5.0 | 0.00 | 0.00 | 0.00 | 74 | 1013.2 |
| 20260903040504 | 81 | 241 | 1.0 | 4.0 | 0.00 | 0.00 | 0.00 | 74 | 1013.0 |
| 20260903040009 | 81 | 240 | 1.0 | 4.0 | 0.00 | 0.00 | 0.00 | 74 | 1013.0 |
| 20260903035504 | 81 | 242 | 2.0 | 4.0 | 0.00 | 0.00 | 0.00 | 74 | 1013.0 |
| 20260903035004 | 81 | 244 | 2.0 | 5.0 | 0.00 | 0.00 | 0.00 | 74 | 1012.8 |
| 20260903034504 | 81 | 245 | 1.0 | 5.0 | 0.00 | 0.00 | 0.00 | 74 | 1012.8 |
| 20260903034005 | 82 | 258 | 1.0 | 4.0 | 0.00 | 0.00 | 0.00 | 73 | 1012.6 |
| 20260903033504 | 82 | 265 | 1.0 | 3.0 | 0.00 | 0.00 | 0.00 | 73 | 1012.6 |
| 20260903033005 | 82 | 246 | 1.0 | 4.0 | 0.00 | 0.00 | 0.00 | 73 | 1012.6 |
| 20260903032503 | 82 | 241 | 1.0 | 4.0 | 0.00 | 0.00 | 0.00 | 73 | 1012.7 |
| 20260903032004 | 82 | 245 | 2.0 | 4.0 | 0.00 | 0.00 | 0.00 | 73 | 1012.8 |
| 20260903031504 | 82 | 241 | 2.0 | 4.0 | 0.00 | 0.00 | 0.00 | 73 | 1012.9 |
| 20260903031004 | 82 | 228 | 2.0 | 8.0 | 0.00 | 0.00 | 0.00 | 73 | 1013.1 |
| 20260903030504 | 82 | 223 | 2.0 | 8.0 | 0.00 | 0.00 | 0.00 | 73 | 1013.2 |
| 20260903030004 | 82 | 217 | 1.0 | 4.0 | 0.00 | 0.00 | 0.00 | 73 | 1013.4 |
| 20260903025504 | 82 | 228 | 1.0 | 4.0 | 0.00 | 0.00 | 0.00 | 73 | 1013.5 |
| 20260903025004 | 82 | 235 | 1.0 | 4.0 | 0.00 | 0.00 | 0.00 | 73 | 1013.6 |
| 20260903024503 | 82 | 238 | 1.0 | 3.0 | 0.00 | 0.00 | 0.00 | 73 | 1013.6 |
| 20260903024005 | 82 | 240 | 2.0 | 5.0 | 0.00 | 0.00 | 0.00 | 73 | 1013.7 |
| 20260903023503 | 82 | 230 | 2.0 | 5.0 | 0.00 | 0.00 | 0.00 | 72 | 1013.6 |
| 20260903023005 | 82 | 228 | 2.0 | 5.0 | 0.00 | 0.00 | 0.00 | 73 | 1013.8 |
| 20260903022004 | 82 | 237 | 1.0 | 3.0 | 0.00 | 0.00 | 0.00 | 73 | 1013.7 |
| 20260903021504 | 83 | 237 | 1.0 | 3.0 | 0.00 | 0.00 | 0.00 | 73 | 1013.7 |
| 20260903020504 | 83 | 236 | 0.0 | 4.0 | 0.00 | 0.00 | 0.00 | 72 | 1013.7 |
| 20260903020004 | 83 | 0 | 0.0 | 0.0 | 0.00 | 0.00 | 0.00 | 72 | 1013.7 |
| 20260903015504 | 83 | 0 | 0.0 | 0.0 | 0.00 | 0.00 | 0.00 | 71 | 1013.8 |
| 20260903015004 | 83 | 0 | 0.0 | 0.0 | 0.00 | 0.00 | 0.00 | 71 | 1013.7 |
| 20260903014504 | 84 | 0 | 0.0 | 0.0 | 0.00 | 0.00 | 0.00 | 71 | 1013.7 |
| 20260903014004 | 84 | 0 | 0.0 | 0.0 | 0.00 | 0.00 | 0.00 | 70 | 1013.8 |
| 20260903013504 | 84 | 0 | 0.0 | 0.0 | 0.00 | 0.00 | 0.00 | 70 | 1013.9 |
| 20260903013004 | 84 | 0 | 0.0 | 0.0 | 0.00 | 0.00 | 0.00 | 70 | 1013.9 |
| 20260903012504 | 84 | 236 | 0.0 | 1.0 | 0.00 | 0.00 | 0.00 | 70 | 1014.0 |
| 20260903012004 | 84 | 237 | 0.0 | 2.0 | 0.00 | 0.00 | 0.00 | 69 | 1013.9 |
| 20260903011504 | 84 | 237 | 0.0 | 2.0 | 0.00 | 0.00 | 0.00 | 69 | 1013.9 |
| 20260903011004 | 85 | 0 | 0.0 | 0.0 | 0.00 | 0.00 | 0.00 | 69 | 1013.9 |
| 20260903010504 | 85 | 0 | 0.0 | 0.0 | 0.00 | 0.00 | 0.00 | 68 | 1013.8 |
| 20260903010004 | 85 | 0 | 0.0 | 0.0 | 0.00 | 0.00 | 0.00 | 68 | 1013.8 |
| 20260903005504 | 86 | 0 | 0.0 | 0.0 | 0.00 | 0.00 | 0.00 | 67 | 1013.8 |
| 20260903005004 | 86 | 0 | 0.0 | 0.0 | 0.00 | 0.00 | 0.00 | 67 | 1013.7 |
| 20260903004504 | 86 | 0 | 0.0 | 0.0 | 0.00 | 0.00 | 0.00 | 66 | 1013.8 |
| 20260903004004 | 86 | 236 | 0.0 | 3.0 | 0.00 | 0.00 | 0.00 | 66 | 1013.6 |
| 20260903003504 | 86 | 237 | 0.0 | 3.0 | 0.00 | 0.00 | 0.00 | 66 | 1013.5 |
| 20260903003004 | 86 | 237 | 0.0 | 2.0 | 0.00 | 0.00 | 0.00 | 65 | 1013.4 |
| 20260903002504 | 86 | 0 | 0.0 | 0.0 | 0.00 | 0.00 | 0.00 | 65 | 1013.4 |
| 20260903002004 | 87 | 0 | 0.0 | 0.0 | 0.00 | 0.00 | 0.00 | 65 | 1013.3 |
| 20260903001504 | 87 | 0 | 0.0 | 0.0 | 0.00 | 0.00 | 0.00 | 65 | 1013.2 |
| 20260903000504 | 87 | 227 | 1.0 | 3.0 | 0.00 | 0.00 | 0.00 | 64 | 1013.2 |
| 20260903000005 | 87 | 227 | 1.0 | 3.0 | 0.00 | 0.00 | 0.00 | 64 | 1013.2 |
| 20260902235503 | 87 | 226 | 1.0 | 4.0 | 0.00 | 0.00 | 0.00 | 64 | 1013.2 |
| 20260902235006 | 88 | 237 | 2.0 | 4.0 | 0.00 | 0.00 | 0.00 | 64 | 1013.2 |
| 20260902234503 | 88 | 244 | 1.0 | 6.0 | 0.00 | 0.00 | 0.00 | 64 | 1013.3 |
| 20260902234005 | 88 | 238 | 0.0 | 6.0 | 0.00 | 0.00 | 0.00 | 63 | 1013.3 |
| 20260902233503 | 88 | 0 | 0.0 | 0.0 | 0.00 | 0.00 | 0.00 | 63 | 1013.2 |
| 20260902233004 | 88 | 0 | 0.0 | 0.0 | 0.00 | 0.00 | 0.00 | 63 | 1013.2 |
| 20260902232504 | 88 | 0 | 0.0 | 0.0 | 0.00 | 0.00 | 0.00 | 63 | 1013.3 |
| 20260902232005 | 89 | 236 | 1.0 | 3.0 | 0.00 | 0.00 | 0.00 | 62 | 1013.2 |
| 20260902230504 | 89 | 239 | 2.0 | 4.0 | 0.00 | 0.00 | 0.00 | 61 | 1013.4 |
| 20260902225004 | 89 | 242 | 2.0 | 10.0 | 0.00 | 0.00 | 0.00 | 60 | 1013.4 |
| 20260902223504 | 90 | 244 | 1.0 | 5.0 | 0.00 | 0.00 | 0.00 | 59 | 1013.4 |
| 20260902223005 | 90 | 248 | 1.0 | 5.0 | 0.00 | 0.00 | 0.00 | 58 | 1013.4 |
| 20260902222504 | 90 | 243 | 2.0 | 5.0 | 0.00 | 0.00 | 0.00 | 57 | 1013.2 |
| 20260902222004 | 90 | 243 | 2.0 | 5.0 | 0.00 | 0.00 | 0.00 | 57 | 1013.2 |
| 20260902221504 | 90 | 237 | 3.0 | 5.0 | 0.00 | 0.00 | 0.00 | 56 | 1013.2 |
| 20260902221005 | 90 | 233 | 3.0 | 8.0 | 0.00 | 0.00 | 0.00 | 56 | 1013.2 |
| 20260902220503 | 90 | 238 | 3.0 | 8.0 | 0.00 | 0.00 | 0.00 | 56 | 1013.1 |
| 20260902220004 | 91 | 242 | 3.0 | 13.0 | 0.00 | 0.00 | 0.00 | 56 | 1013.2 |
| 20260902215504 | 91 | 246 | 2.0 | 13.0 | 0.00 | 0.00 | 0.00 | 56 | 1013.2 |
| 20260902215004 | 91 | 250 | 2.0 | 8.0 | 0.00 | 0.00 | 0.00 | 57 | 1013.3 |
| 20260902214504 | 91 | 244 | 2.0 | 10.0 | 0.00 | 0.00 | 0.00 | 57 | 1013.3 |
| 20260902214017 | 91 | 242 | 3.0 | 13.0 | 0.00 | 0.00 | 0.00 | 57 | 1013.2 |
| 20260902213505 | 91 | 236 | 3.0 | 13.0 | 0.00 | 0.00 | 0.00 | 57 | 1013.3 |
| 20260902213007 | 91 | 222 | 2.0 | 8.0 | 0.00 | 0.00 | 0.00 | 59 | 1013.4 |
| 20260902212504 | 91 | 217 | 2.0 | 6.0 | 0.00 | 0.00 | 0.00 | 58 | 1013.3 |
| 20260902212004 | 91 | 223 | 3.0 | 8.0 | 0.00 | 0.00 | 0.00 | 59 | 1013.4 |
| 20260902211504 | 91 | 229 | 3.0 | 8.0 | 0.00 | 0.00 | 0.00 | 59 | 1013.5 |
| 20260902211005 | 91 | 230 | 2.0 | 9.0 | 0.00 | 0.00 | 0.00 | 59 | 1013.5 |
| 20260902210504 | 91 | 223 | 2.0 | 10.0 | 0.00 | 0.00 | 0.00 | 59 | 1013.6 |
| 20260902210004 | 91 | 214 | 2.0 | 10.0 | 0.00 | 0.00 | 0.00 | 59 | 1013.7 |
| 20260902205504 | 91 | 219 | 3.0 | 7.0 | 0.00 | 0.00 | 0.00 | 59 | 1013.8 |
| 20260902205004 | 92 | 228 | 3.0 | 10.0 | 0.00 | 0.00 | 0.00 | 60 | 1013.7 |
| 20260902204504 | 92 | 230 | 4.0 | 10.0 | 0.00 | 0.00 | 0.00 | 59 | 1013.7 |
| 20260902204005 | 92 | 229 | 4.0 | 9.0 | 0.00 | 0.00 | 0.00 | 59 | 1013.8 |
| 20260902203504 | 92 | 233 | 2.0 | 8.0 | 0.00 | 0.00 | 0.00 | 60 | 1013.9 |
| 20260902203004 | 92 | 229 | 3.0 | 10.0 | 0.00 | 0.00 | 0.00 | 60 | 1013.8 |
| 20260902202504 | 92 | 221 | 3.0 | 10.0 | 0.00 | 0.00 | 0.00 | 58 | 1013.9 |
| 20260902202004 | 92 | 218 | 3.0 | 8.0 | 0.00 | 0.00 | 0.00 | 58 | 1013.9 |
| 20260902201504 | 93 | 213 | 3.0 | 8.0 | 0.00 | 0.00 | 0.00 | 58 | 1014.0 |
| 20260902201005 | 93 | 225 | 2.0 | 9.0 | 0.00 | 0.00 | 0.00 | 58 | 1014.2 |
| 20260902200503 | 93 | 236 | 3.0 | 9.0 | 0.00 | 0.00 | 0.00 | 57 | 1014.2 |
| 20260902195503 | 94 | 230 | 3.0 | 10.0 | 0.00 | 0.00 | 0.00 | 55 | 1014.2 |
| 20260902195004 | 94 | 218 | 2.0 | 8.0 | 0.00 | 0.00 | 0.00 | 56 | 1014.2 |
| 20260902194005 | 95 | 240 | 3.0 | 10.0 | 0.00 | 0.00 | 0.00 | 55 | 1014.3 |
| 20260902193504 | 95 | 239 | 3.0 | 10.0 | 0.00 | 0.00 | 0.00 | 55 | 1014.2 |
| 20260902193004 | 95 | 224 | 2.0 | 9.0 | 0.00 | 0.00 | 0.00 | 56 | 1014.3 |
| 20260902192504 | 95 | 217 | 3.0 | 8.0 | 0.00 | 0.00 | 0.00 | 54 | 1014.3 |
| 20260902192004 | 95 | 216 | 3.0 | 8.0 | 0.00 | 0.00 | 0.00 | 53 | 1014.5 |
| 20260902191504 | 96 | 231 | 2.0 | 4.0 | 0.00 | 0.00 | 0.00 | 53 | 1014.5 |
| 20260902191004 | 96 | 227 | 2.0 | 7.0 | 0.00 | 0.00 | 0.00 | 52 | 1014.6 |
| 20260902190504 | 96 | 232 | 2.0 | 7.0 | 0.00 | 0.00 | 0.00 | 52 | 1014.6 |
| 20260902190004 | 96 | 229 | 2.0 | 6.0 | 0.00 | 0.00 | 0.00 | 52 | 1014.7 |
| 20260902185504 | 96 | 215 | 2.0 | 6.0 | 0.00 | 0.00 | 0.00 | 53 | 1014.8 |
| 20260902185004 | 97 | 205 | 2.0 | 6.0 | 0.00 | 0.00 | 0.00 | 52 | 1014.7 |
| 20260902184504 | 97 | 217 | 2.0 | 6.0 | 0.00 | 0.00 | 0.00 | 51 | 1014.8 |
| 20260902184005 | 97 | 236 | 2.0 | 4.0 | 0.00 | 0.00 | 0.00 | 50 | 1014.9 |
| 20260902183503 | 97 | 265 | 2.0 | 5.0 | 0.00 | 0.00 | 0.00 | 50 | 1014.9 |
| 20260902183005 | 97 | 248 | 2.0 | 7.0 | 0.00 | 0.00 | 0.00 | 52 | 1015.0 |
| 20260902182504 | 97 | 230 | 1.0 | 7.0 | 0.00 | 0.00 | 0.00 | 52 | 1015.0 |
| 20260902182004 | 97 | 234 | 1.0 | 4.0 | 0.00 | 0.00 | 0.00 | 53 | 1015.1 |
| 20260902181005 | 97 | 213 | 2.0 | 5.0 | 0.00 | 0.00 | 0.00 | 50 | 1015.1 |
| 20260902180503 | 98 | 211 | 2.0 | 6.0 | 0.00 | 0.00 | 0.00 | 47 | 1015.1 |
| 20260902180007 | 99 | 227 | 2.0 | 6.0 | 0.00 | 0.00 | 0.00 | 49 | 1015.1 |
| 20260902175503 | 99 | 264 | 1.0 | 5.0 | 0.00 | 0.00 | 0.00 | 50 | 1015.3 |
| 20260902174503 | 98 | 258 | 1.0 | 4.0 | 0.00 | 0.00 | 0.00 | 49 | 1015.5 |
| 20260902173503 | 98 | 213 | 1.0 | 7.0 | 0.00 | 0.00 | 0.00 | 51 | 1015.6 |
| 20260902173004 | 98 | 205 | 2.0 | 7.0 | 0.00 | 0.00 | 0.00 | 50 | 1015.7 |
| 20260902172504 | 98 | 219 | 2.0 | 6.0 | 0.00 | 0.00 | 0.00 | 51 | 1015.8 |
| 20260902172005 | 98 | 232 | 1.0 | 6.0 | 0.00 | 0.00 | 0.00 | 51 | 1015.7 |
| 20260902171504 | 97 | 225 | 1.0 | 5.0 | 0.00 | 0.00 | 0.00 | 52 | 1015.9 |
| 20260902171005 | 97 | 155 | 1.0 | 4.0 | 0.00 | 0.00 | 0.00 | 53 | 1015.9 |
| 20260902170504 | 96 | 149 | 1.0 | 3.0 | 0.00 | 0.00 | 0.00 | 55 | 1016.0 |
| 20260902170004 | 96 | 194 | 1.0 | 6.0 | 0.00 | 0.00 | 0.00 | 55 | 1016.0 |
| 20260902165503 | 95 | 229 | 2.0 | 6.0 | 0.00 | 0.00 | 0.00 | 56 | 1015.9 |
| 20260902165005 | 95 | 252 | 2.0 | 5.0 | 0.00 | 0.00 | 0.00 | 57 | 1016.0 |
| 20260902164504 | 94 | 239 | 2.0 | 5.0 | 0.00 | 0.00 | 0.00 | 58 | 1016.0 |
| 20260902163504 | 93 | 234 | 1.0 | 5.0 | 0.00 | 0.00 | 0.00 | 60 | 1016.1 |
| 20260902163005 | 92 | 216 | 1.0 | 4.0 | 0.00 | 0.00 | 0.00 | 61 | 1016.1 |
| 20260902162504 | 91 | 202 | 1.0 | 5.0 | 0.00 | 0.00 | 0.00 | 62 | 1016.2 |
| 20260902162005 | 91 | 227 | 1.0 | 5.0 | 0.00 | 0.00 | 0.00 | 63 | 1016.1 |
| 20260902161504 | 90 | 250 | 2.0 | 7.0 | 0.00 | 0.00 | 0.00 | 65 | 1016.3 |
| 20260902161005 | 89 | 255 | 1.0 | 7.0 | 0.00 | 0.00 | 0.00 | 66 | 1016.3 |
| 20260902160006 | 87 | 223 | 2.0 | 6.0 | 0.00 | 0.00 | 0.00 | 69 | 1016.3 |
| 20260902155504 | 87 | 229 | 1.0 | 5.0 | 0.00 | 0.00 | 0.00 | 69 | 1016.4 |
| 20260902154504 | 86 | 232 | 1.0 | 7.0 | 0.00 | 0.00 | 0.00 | 70 | 1016.5 |
| 20260902154004 | 86 | 229 | 1.0 | 5.0 | 0.00 | 0.00 | 0.00 | 70 | 1016.6 |
| 20260902153504 | 86 | 229 | 1.0 | 5.0 | 0.00 | 0.00 | 0.00 | 70 | 1016.5 |
| 20260902153004 | 86 | 229 | 2.0 | 5.0 | 0.00 | 0.00 | 0.00 | 70 | 1016.5 |
| 20260902152504 | 86 | 229 | 3.0 | 5.0 | 0.00 | 0.00 | 0.00 | 69 | 1016.5 |
| 20260902152004 | 85 | 225 | 2.0 | 5.0 | 0.00 | 0.00 | 0.00 | 71 | 1016.5 |
| 20260902151503 | 85 | 217 | 1.0 | 3.0 | 0.00 | 0.00 | 0.00 | 72 | 1016.5 |
| 20260902151004 | 85 | 227 | 1.0 | 4.0 | 0.00 | 0.00 | 0.00 | 72 | 1016.5 |
| 20260902150503 | 84 | 242 | 2.0 | 6.0 | 0.00 | 0.00 | 0.00 | 73 | 1016.5 |
| 20260902150004 | 84 | 236 | 2.0 | 6.0 | 0.00 | 0.00 | 0.00 | 74 | 1016.4 |
| 20260902145004 | 83 | 226 | 2.0 | 6.0 | 0.00 | 0.00 | 0.00 | 77 | 1016.4 |
| 20260902144504 | 82 | 230 | 2.0 | 6.0 | 0.00 | 0.00 | 0.00 | 77 | 1016.4 |
| 20260902144004 | 82 | 233 | 2.0 | 5.0 | 0.00 | 0.00 | 0.00 | 78 | 1016.2 |
| 20260902143504 | 81 | 233 | 2.0 | 5.0 | 0.00 | 0.00 | 0.00 | 80 | 1016.2 |
| 20260902143004 | 81 | 237 | 2.0 | 5.0 | 0.00 | 0.00 | 0.00 | 82 | 1016.2 |
| 20260902142005 | 80 | 260 | 2.0 | 4.0 | 0.00 | 0.00 | 0.00 | 84 | 1016.1 |
| 20260902141503 | 79 | 265 | 1.0 | 4.0 | 0.00 | 0.00 | 0.00 | 85 | 1016.0 |
| 20260902140504 | 78 | 315 | 1.0 | 3.0 | 0.00 | 0.00 | 0.00 | 87 | 1016.1 |
| 20260902135504 | 78 | 242 | 2.0 | 5.0 | 0.00 | 0.00 | 0.00 | 88 | 1016.1 |
| 20260902135005 | 77 | 238 | 2.0 | 5.0 | 0.00 | 0.00 | 0.00 | 89 | 1016.1 |
| 20260902134504 | 77 | 235 | 2.0 | 5.0 | 0.00 | 0.00 | 0.00 | 90 | 1016.2 |
| 20260902134004 | 76 | 237 | 2.0 | 5.0 | 0.00 | 0.00 | 0.00 | 90 | 1016.1 |
| 20260902133504 | 76 | 235 | 2.0 | 4.0 | 0.00 | 0.00 | 0.00 | 91 | 1016.1 |
| 20260902133004 | 76 | 232 | 1.0 | 4.0 | 0.00 | 0.00 | 0.00 | 92 | 1016.0 |
| 20260902132504 | 75 | 233 | 1.0 | 4.0 | 0.00 | 0.00 | 0.00 | 92 | 1016.2 |
| 20260902132004 | 75 | 231 | 1.0 | 4.0 | 0.00 | 0.00 | 0.00 | 92 | 1016.2 |
| 20260902131504 | 75 | 226 | 0.0 | 3.0 | 0.00 | 0.00 | 0.00 | 92 | 1016.2 |
| 20260902130005 | 75 | 0 | 0.0 | 0.0 | 0.00 | 0.00 | 0.00 | 92 | 1016.2 |
| 20260902125503 | 74 | 0 | 0.0 | 0.0 | 0.00 | 0.00 | 0.00 | 92 | 1016.2 |
| 20260902125004 | 74 | 0 | 0.0 | 0.0 | 0.00 | 0.00 | 0.00 | 93 | 1016.0 |
| 20260902124504 | 74 | 0 | 0.0 | 0.0 | 0.00 | 0.00 | 0.00 | 92 | 1016.0 |
| 20260902124005 | 74 | 0 | 0.0 | 0.0 | 0.00 | 0.00 | 0.00 | 92 | 1016.0 |
| 20260902123504 | 74 | 0 | 0.0 | 0.0 | 0.00 | 0.00 | 0.00 | 92 | 1016.1 |
| 20260902123005 | 74 | 0 | 0.0 | 0.0 | 0.00 | 0.00 | 0.00 | 92 | 1016.1 |
| 20260902121504 | 73 | 0 | 0.0 | 0.0 | 0.00 | 0.00 | 0.00 | 92 | 1015.9 |
| 20260902121004 | 73 | 0 | 0.0 | 0.0 | 0.00 | 0.00 | 0.00 | 92 | 1016.0 |
| 20260902120504 | 72 | 0 | 0.0 | 0.0 | 0.00 | 0.00 | 0.00 | 92 | 1016.0 |
| 20260902120005 | 72 | 0 | 0.0 | 0.0 | 0.00 | 0.00 | 0.00 | 91 | 1015.8 |
| 20260902115005 | 72 | 0 | 0.0 | 0.0 | 0.00 | 0.00 | 0.00 | 91 | 1015.5 |
| 20260902114504 | 72 | 0 | 0.0 | 0.0 | 0.00 | 0.00 | 0.00 | 91 | 1015.5 |
| 20260902113503 | 72 | 0 | 0.0 | 0.0 | 0.00 | 0.00 | 0.00 | 91 | 1015.4 |
| 20260902113004 | 72 | 0 | 0.0 | 0.0 | 0.00 | 0.00 | 0.00 | 91 | 1015.4 |
| 20260902112504 | 72 | 0 | 0.0 | 0.0 | 0.00 | 0.00 | 0.00 | 91 | 1015.4 |
| 20260902112005 | 72 | 0 | 0.0 | 0.0 | 0.00 | 0.00 | 0.00 | 91 | 1015.5 |
| 20260902111503 | 73 | 0 | 0.0 | 0.0 | 0.00 | 0.00 | 0.00 | 91 | 1015.3 |
| 20260902111004 | 73 | 0 | 0.0 | 0.0 | 0.00 | 0.00 | 0.00 | 91 | 1015.3 |
| 20260902110504 | 73 | 0 | 0.0 | 0.0 | 0.00 | 0.00 | 0.00 | 91 | 1015.4 |
| 20260902110007 | 73 | 0 | 0.0 | 0.0 | 0.00 | 0.00 | 0.00 | 91 | 1015.3 |